IBE32LP LEVC-EGCC

Flight info

Callsign IBE32LP
Flight time 2h 7m
Altitude 43000
Route SOPET N608 MATEX Z475 OSLAP Y90 USKAR N863 GIROM DCT AGN DCT SECHE DCT UVELI DCT CNA DCT TUPAR UY120 AKIKI UN867 AVANT UM184 HEMEL T420 ELVOS
Aircraft A359/H-SDE2E3GHIJ3J4J5LM1ORWXY/LB1D1

Departure

Time 2026-05-04 17:09
Airport Valencia Airport (LEVC)

Arrival

Time 2026-05-04 19:16
Airport Manchester Airport (EGCC)
Time Latitude Longitude Altitude Speed Heading
2026-05-04 16:21 39.49028 -0.47338 199 ft 0 kts 12°
2026-05-04 16:39 39.49027 -0.47338 199 ft 0 kts 12°
2026-05-04 16:58 39.49005 -0.47350 202 ft 3 kts 26°
2026-05-04 16:58 39.48989 -0.47360 210 ft 3 kts 13°
2026-05-04 16:59 39.48958 -0.47355 207 ft 3 kts 322°
2026-05-04 17:00 39.48946 -0.47346 198 ft 0 kts 296°
2026-05-04 17:00 39.48946 -0.47353 210 ft 0 kts 296°
2026-05-04 17:01 39.48944 -0.47356 210 ft 0 kts 296°
2026-05-04 17:03 39.48952 -0.47370 213 ft 9 kts 303°
2026-05-04 17:03 39.48998 -0.47471 216 ft 14 kts 298°
2026-05-04 17:03 39.49047 -0.47744 219 ft 17 kts 257°
2026-05-04 17:04 39.49095 -0.48060 219 ft 21 kts 298°
2026-05-04 17:04 39.49231 -0.48427 226 ft 24 kts 295°
2026-05-04 17:05 39.49387 -0.48849 229 ft 28 kts 298°
2026-05-04 17:05 39.49581 -0.49343 236 ft 33 kts 297°
2026-05-04 17:06 39.49746 -0.49774 244 ft 22 kts 296°
2026-05-04 17:06 39.49814 -0.49951 231 ft 21 kts 296°
2026-05-04 17:07 39.49728 -0.50076 255 ft 12 kts 168°
2026-05-04 17:07 39.49668 -0.50045 254 ft 15 kts 149°
2026-05-04 17:07 39.49633 -0.49994 252 ft 5 kts 118°
2026-05-04 17:07 39.49630 -0.49986 251 ft 0 kts 116°
2026-05-04 17:08 39.49086 -0.48558 226 ft 167 kts 118°
2026-05-04 17:08 39.48454 -0.47042 514 ft 208 kts 116°
2026-05-04 17:09 39.47783 -0.45310 1460 ft 219 kts 118°
2026-05-04 17:09 39.46966 -0.43554 2219 ft 238 kts 126°
2026-05-04 17:09 39.45920 -0.41776 2744 ft 255 kts 130°
2026-05-04 17:10 39.43641 -0.38054 4208 ft 271 kts 130°
2026-05-04 17:10 39.40111 -0.32074 6444 ft 288 kts 123°
2026-05-04 17:11 39.39556 -0.29566 7103 ft 298 kts 91°
2026-05-04 17:11 39.40062 -0.26973 7824 ft 301 kts 59°
2026-05-04 17:11 39.43437 -0.24278 9243 ft 292 kts 357°
2026-05-04 17:12 39.45475 -0.24341 10007 ft 294 kts 353°
2026-05-04 17:12 39.49810 -0.24141 10702 ft 332 kts
2026-05-04 17:13 39.57032 -0.22885 12206 ft 358 kts
2026-05-04 17:14 39.64485 -0.21380 14048 ft 369 kts
2026-05-04 17:14 39.66992 -0.20492 14535 ft 380 kts 20°
2026-05-04 17:14 39.71213 -0.16126 15563 ft 397 kts 43°
2026-05-04 17:15 39.73185 -0.13574 16086 ft 401 kts 43°
2026-05-04 17:15 39.77204 -0.08395 17110 ft 411 kts 43°
2026-05-04 17:16 39.81327 -0.03130 18167 ft 419 kts 41°
2026-05-04 17:16 39.89020 0.01957 19520 ft 419 kts 12°
2026-05-04 17:17 39.91839 0.02982 19979 ft 421 kts 10°
2026-05-04 17:17 40.00414 0.05892 21343 ft 432 kts 10°
2026-05-04 17:18 40.03330 0.06929 21795 ft 436 kts 11°
2026-05-04 17:18 40.09194 0.09086 22800 ft 441 kts 11°
2026-05-04 17:19 40.15165 0.11320 23634 ft 449 kts 11°
2026-05-04 17:19 40.21208 0.13589 24382 ft 454 kts 11°
2026-05-04 17:20 40.27244 0.15846 25182 ft 459 kts 11°
2026-05-04 17:20 40.33491 0.18184 26000 ft 464 kts 11°
2026-05-04 17:20 40.36572 0.19342 26415 ft 468 kts 11°
2026-05-04 17:21 40.42868 0.21712 27315 ft 474 kts 11°
2026-05-04 17:21 40.49281 0.24127 28257 ft 481 kts 11°
2026-05-04 17:22 40.52470 0.25329 28739 ft 484 kts 11°
2026-05-04 17:22 40.55716 0.26808 29220 ft 493 kts 19°
2026-05-04 17:23 40.65033 0.32894 30552 ft 507 kts 24°
2026-05-04 17:23 40.68156 0.35070 30991 ft 510 kts 24°
2026-05-04 17:23 40.74459 0.39483 31846 ft 516 kts 24°
2026-05-04 17:24 40.77653 0.41712 32253 ft 519 kts 24°
2026-05-04 17:24 40.87313 0.48432 33434 ft 529 kts 24°
2026-05-04 17:25 40.90623 0.50734 33829 ft 532 kts 24°
2026-05-04 17:25 40.97179 0.55302 34523 ft 537 kts 24°
2026-05-04 17:26 41.03822 0.59944 35176 ft 542 kts 24°
2026-05-04 17:26 41.13889 0.66629 36520 ft 533 kts 16°
2026-05-04 17:27 41.20874 0.69638 37527 ft 528 kts 12°
2026-05-04 17:27 41.27911 0.72389 37914 ft 522 kts 11°
2026-05-04 17:28 41.34840 0.75060 37937 ft 516 kts 11°
2026-05-04 17:29 41.55512 0.83151 37916 ft 516 kts 12°
2026-05-04 17:31 41.72668 0.89941 37918 ft 515 kts 12°
2026-05-04 17:32 41.89877 0.96773 37936 ft 516 kts 13°
2026-05-04 17:33 42.03619 1.02264 37950 ft 517 kts 13°
2026-05-04 17:34 42.14052 1.05922 37948 ft 512 kts
2026-05-04 17:34 42.17591 1.06114 37953 ft 505 kts 353°
2026-05-04 17:35 42.35095 1.04389 37940 ft 504 kts 350°
2026-05-04 17:36 42.42109 1.03593 37949 ft 505 kts 350°
2026-05-04 17:36 42.49050 1.02832 37948 ft 505 kts 351°
2026-05-04 17:37 42.56060 1.02074 37952 ft 505 kts 351°
2026-05-04 17:37 42.63056 1.01313 37958 ft 503 kts 351°
2026-05-04 17:38 42.70032 1.00555 37969 ft 504 kts 351°
2026-05-04 17:38 42.77027 0.99782 37961 ft 504 kts 351°
2026-05-04 17:39 42.87511 0.98620 37966 ft 503 kts 351°
2026-05-04 17:39 42.94512 0.97847 37978 ft 504 kts 351°
2026-05-04 17:40 43.01499 0.97079 37978 ft 504 kts 351°
2026-05-04 17:40 43.08443 0.96314 37974 ft 503 kts 351°
2026-05-04 17:41 43.15422 0.95539 37982 ft 502 kts 351°
2026-05-04 17:41 43.22399 0.94763 37979 ft 502 kts 351°
2026-05-04 17:42 43.29367 0.93985 37983 ft 502 kts 351°
2026-05-04 17:42 43.36359 0.93203 37967 ft 503 kts 351°
2026-05-04 17:43 43.43338 0.92421 37981 ft 503 kts 352°
2026-05-04 17:43 43.50273 0.91642 37977 ft 503 kts 352°
2026-05-04 17:44 43.57265 0.90857 37969 ft 503 kts 352°
2026-05-04 17:44 43.64248 0.90070 37974 ft 503 kts 352°
2026-05-04 17:45 43.71248 0.89278 37961 ft 504 kts 352°
2026-05-04 17:45 43.78237 0.88488 37957 ft 504 kts 352°
2026-05-04 17:46 43.85210 0.87672 37956 ft 504 kts 350°
2026-05-04 17:46 43.90867 0.85788 37948 ft 496 kts 335°
2026-05-04 17:47 43.97153 0.82029 37944 ft 494 kts 331°
2026-05-04 17:47 44.03371 0.77985 37956 ft 494 kts 330°
2026-05-04 17:48 44.09614 0.73885 37942 ft 495 kts 331°
2026-05-04 17:48 44.15866 0.69808 37938 ft 496 kts 331°
2026-05-04 17:49 44.22078 0.65771 37938 ft 496 kts 331°
2026-05-04 17:49 44.28343 0.61692 37939 ft 496 kts 331°
2026-05-04 17:50 44.34592 0.57612 37950 ft 497 kts 331°
2026-05-04 17:50 44.40866 0.53504 37949 ft 497 kts 331°
2026-05-04 17:51 44.47114 0.49400 37945 ft 497 kts 331°
2026-05-04 17:51 44.53340 0.45271 37940 ft 497 kts 330°
2026-05-04 17:52 44.59607 0.41097 37932 ft 497 kts 330°
2026-05-04 17:52 44.65860 0.36927 37924 ft 497 kts 331°
2026-05-04 17:53 44.72072 0.32776 37921 ft 498 kts 331°
2026-05-04 17:53 44.78327 0.28592 37922 ft 498 kts 331°
2026-05-04 17:54 44.84589 0.24392 37925 ft 497 kts 331°
2026-05-04 17:54 44.90829 0.20195 37932 ft 497 kts 331°
2026-05-04 17:55 44.97088 0.15975 37940 ft 497 kts 331°
2026-05-04 17:55 45.03339 0.11752 37953 ft 498 kts 331°
2026-05-04 17:56 45.09591 0.07523 37949 ft 499 kts 331°
2026-05-04 17:56 45.15815 0.03291 37944 ft 499 kts 331°
2026-05-04 17:57 45.22083 -0.00981 37971 ft 498 kts 331°
2026-05-04 17:57 45.28322 -0.05241 37953 ft 497 kts 331°
2026-05-04 17:58 45.34558 -0.09507 37931 ft 497 kts 331°
2026-05-04 17:58 45.40788 -0.13780 37950 ft 497 kts 331°
2026-05-04 17:59 45.46996 -0.18049 37948 ft 497 kts 331°
2026-05-04 18:00 45.56332 -0.24489 37939 ft 497 kts 331°
2026-05-04 18:00 45.62541 -0.28786 37942 ft 496 kts 331°
2026-05-04 18:01 45.68961 -0.32478 37948 ft 498 kts 339°
2026-05-04 18:01 45.75560 -0.35541 37955 ft 499 kts 340°
2026-05-04 18:02 45.85522 -0.40004 37947 ft 499 kts 340°
2026-05-04 18:02 45.92101 -0.42971 37945 ft 499 kts 340°
2026-05-04 18:03 45.98773 -0.46001 37949 ft 499 kts 340°
2026-05-04 18:03 46.05351 -0.49001 37950 ft 500 kts 340°
2026-05-04 18:04 46.11974 -0.52028 37948 ft 500 kts 340°
2026-05-04 18:05 46.21956 -0.56604 37955 ft 500 kts 340°
2026-05-04 18:05 46.28568 -0.59644 37951 ft 501 kts 340°
2026-05-04 18:06 46.38530 -0.64240 37958 ft 501 kts 340°
2026-05-04 18:06 46.45022 -0.67864 37960 ft 498 kts 332°
2026-05-04 18:07 46.51245 -0.72278 37955 ft 498 kts 330°
2026-05-04 18:07 46.57433 -0.76827 37957 ft 497 kts 330°
2026-05-04 18:08 46.63569 -0.81356 37979 ft 497 kts 330°
2026-05-04 18:08 46.69742 -0.85906 37962 ft 497 kts 330°
2026-05-04 18:09 46.82101 -0.95027 37957 ft 497 kts 330°
2026-05-04 18:10 46.88279 -0.99604 37962 ft 497 kts 330°
2026-05-04 18:10 46.94692 -1.03476 37960 ft 501 kts 343°
2026-05-04 18:11 47.01569 -1.05002 37957 ft 503 kts 352°
2026-05-04 18:11 47.08541 -1.05954 37956 ft 502 kts 353°
2026-05-04 18:12 47.15508 -1.06834 37948 ft 502 kts 353°
2026-05-04 18:12 47.22474 -1.07752 37945 ft 502 kts 353°
2026-05-04 18:13 47.29419 -1.08697 37941 ft 501 kts 353°
2026-05-04 18:14 47.39842 -1.10132 37939 ft 501 kts 353°
2026-05-04 18:14 47.46752 -1.11084 37936 ft 501 kts 353°
2026-05-04 18:15 47.60663 -1.13008 37942 ft 501 kts 353°
2026-05-04 18:16 47.67611 -1.13974 37942 ft 501 kts 353°
2026-05-04 18:16 47.74556 -1.14943 37945 ft 501 kts 353°
2026-05-04 18:17 47.84916 -1.16392 37947 ft 501 kts 353°
2026-05-04 18:18 47.95342 -1.17855 37950 ft 500 kts 353°
2026-05-04 18:18 48.02297 -1.18835 37951 ft 500 kts 353°
2026-05-04 18:19 48.12666 -1.20301 37955 ft 500 kts 353°
2026-05-04 18:19 48.19590 -1.21283 37954 ft 500 kts 353°
2026-05-04 18:20 48.26517 -1.22268 37958 ft 499 kts 353°
2026-05-04 18:20 48.33449 -1.23256 37966 ft 498 kts 353°
2026-05-04 18:21 48.40354 -1.24244 37969 ft 498 kts 353°
2026-05-04 18:21 48.47227 -1.25229 37969 ft 498 kts 353°
2026-05-04 18:22 48.54141 -1.26223 37975 ft 497 kts 353°
2026-05-04 18:22 48.61046 -1.27219 37969 ft 497 kts 353°
2026-05-04 18:23 48.67895 -1.28210 37973 ft 497 kts 353°
2026-05-04 18:23 48.74770 -1.29206 37979 ft 496 kts 353°
2026-05-04 18:24 48.81635 -1.30204 37979 ft 496 kts 353°
2026-05-04 18:24 48.88514 -1.31206 37980 ft 496 kts 353°
2026-05-04 18:25 48.95381 -1.32212 37984 ft 496 kts 354°
2026-05-04 18:25 49.02247 -1.33217 37986 ft 495 kts 354°
2026-05-04 18:26 49.09116 -1.34226 37983 ft 495 kts 354°
2026-05-04 18:26 49.15983 -1.35238 37984 ft 495 kts 354°
2026-05-04 18:27 49.22827 -1.36249 37990 ft 494 kts 353°
2026-05-04 18:27 49.29636 -1.37259 37989 ft 494 kts 353°
2026-05-04 18:28 49.36471 -1.38275 37993 ft 493 kts 354°
2026-05-04 18:28 49.43306 -1.39293 37991 ft 493 kts 354°
2026-05-04 18:29 49.50139 -1.40314 37995 ft 493 kts 354°
2026-05-04 18:29 49.56960 -1.41330 37993 ft 492 kts 354°
2026-05-04 18:30 49.67220 -1.41004 37996 ft 491 kts
2026-05-04 18:31 49.72894 -1.40498 37999 ft 491 kts
2026-05-04 18:31 49.80831 -1.39764 37995 ft 490 kts
2026-05-04 18:32 49.87633 -1.39149 37996 ft 490 kts
2026-05-04 18:32 49.93295 -1.38643 37986 ft 490 kts
2026-05-04 18:33 50.00104 -1.37914 37990 ft 489 kts
2026-05-04 18:33 50.06854 -1.36383 37985 ft 489 kts
2026-05-04 18:34 50.13598 -1.34706 37997 ft 490 kts
2026-05-04 18:34 50.20288 -1.33016 37997 ft 491 kts
2026-05-04 18:35 50.27067 -1.31312 37994 ft 490 kts
2026-05-04 18:35 50.33768 -1.29630 37994 ft 490 kts
2026-05-04 18:36 50.40497 -1.27939 37997 ft 490 kts
2026-05-04 18:36 50.47220 -1.26133 37994 ft 490 kts 13°
2026-05-04 18:37 50.53521 -1.22168 37993 ft 489 kts 30°
2026-05-04 18:37 50.59337 -1.16634 37991 ft 488 kts 33°
2026-05-04 18:38 50.65071 -1.10868 38002 ft 488 kts 33°
2026-05-04 18:38 50.70768 -1.05122 37999 ft 488 kts 33°
2026-05-04 18:39 50.76492 -0.99376 38003 ft 488 kts 33°
2026-05-04 18:39 50.82365 -0.93985 38004 ft 488 kts 24°
2026-05-04 18:40 50.88748 -0.90297 38006 ft 489 kts 19°
2026-05-04 18:40 50.95240 -0.86937 38003 ft 490 kts 18°
2026-05-04 18:41 51.01733 -0.83619 38002 ft 490 kts 18°
2026-05-04 18:41 51.08186 -0.80285 38017 ft 490 kts 18°
2026-05-04 18:42 51.14664 -0.76909 38023 ft 490 kts 18°
2026-05-04 18:42 51.21147 -0.73514 38018 ft 490 kts 18°
2026-05-04 18:43 51.27625 -0.70113 38019 ft 490 kts 18°
2026-05-04 18:43 51.34106 -0.66702 38022 ft 490 kts 18°
2026-05-04 18:44 51.40585 -0.63281 38019 ft 490 kts 18°
2026-05-04 18:44 51.47055 -0.59855 38023 ft 490 kts 18°
2026-05-04 18:45 51.53526 -0.56418 38023 ft 490 kts 18°
2026-05-04 18:45 51.60016 -0.52961 38020 ft 490 kts 18°
2026-05-04 18:46 51.66430 -0.49534 38019 ft 489 kts 18°
2026-05-04 18:46 51.72924 -0.46207 38045 ft 488 kts 13°
2026-05-04 18:47 51.79659 -0.45213 38025 ft 487 kts 355°
2026-05-04 18:47 51.86213 -0.47749 38024 ft 484 kts 335°
2026-05-04 18:48 51.92094 -0.52934 38020 ft 483 kts 328°
2026-05-04 18:48 51.97845 -0.58612 38020 ft 483 kts 327°
2026-05-04 18:49 52.03574 -0.64320 38031 ft 483 kts 327°
2026-05-04 18:49 52.09312 -0.69993 38033 ft 483 kts 328°
2026-05-04 18:50 52.15084 -0.75674 38037 ft 483 kts 328°
2026-05-04 18:50 52.20837 -0.81351 38032 ft 483 kts 327°
2026-05-04 18:51 52.26543 -0.87008 38034 ft 483 kts 327°
2026-05-04 18:51 52.32279 -0.92711 38037 ft 482 kts 327°
2026-05-04 18:52 52.37997 -0.98417 38046 ft 481 kts 327°
2026-05-04 18:52 52.43717 -1.04142 38024 ft 480 kts 327°
2026-05-04 18:53 52.49424 -1.09867 38020 ft 480 kts 328°
2026-05-04 18:53 52.55096 -1.15564 38008 ft 480 kts 327°
2026-05-04 18:54 52.60786 -1.21308 37999 ft 479 kts 327°
2026-05-04 18:54 52.66473 -1.27070 37988 ft 478 kts 327°
2026-05-04 18:54 52.69264 -1.29901 37458 ft 463 kts 327°
2026-05-04 18:55 52.71982 -1.32656 36361 ft 457 kts 327°
2026-05-04 18:55 52.77427 -1.38215 33244 ft 464 kts 329°
2026-05-04 18:55 52.80150 -1.40998 31552 ft 466 kts 329°
2026-05-04 18:56 52.82911 -1.43821 29804 ft 467 kts 328°
2026-05-04 18:56 52.85674 -1.46649 27968 ft 465 kts 328°
2026-05-04 18:56 52.88404 -1.49448 26455 ft 458 kts 327°
2026-05-04 18:56 52.91094 -1.52211 25061 ft 449 kts 328°
2026-05-04 18:57 52.93726 -1.54914 23647 ft 442 kts 327°
2026-05-04 18:57 52.96327 -1.57595 22106 ft 434 kts 327°
2026-05-04 18:57 52.98851 -1.60203 20660 ft 425 kts 327°
2026-05-04 18:57 53.01343 -1.62782 19314 ft 415 kts 327°
2026-05-04 18:58 53.03767 -1.65295 17964 ft 406 kts 326°
2026-05-04 18:58 53.05936 -1.68097 16474 ft 395 kts 314°
2026-05-04 18:58 53.07761 -1.71469 15467 ft 378 kts 309°
2026-05-04 18:58 53.09414 -1.74689 14925 ft 351 kts 309°
2026-05-04 18:59 53.10944 -1.77673 14486 ft 327 kts 309°
2026-05-04 18:59 53.12373 -1.80452 13948 ft 309 kts 309°
2026-05-04 18:59 53.13752 -1.83144 13126 ft 302 kts 309°
2026-05-04 18:59 53.15083 -1.85743 12624 ft 285 kts 309°
2026-05-04 19:00 53.16328 -1.88173 12118 ft 274 kts 309°
2026-05-04 19:00 53.17552 -1.90564 11445 ft 269 kts 309°
2026-05-04 19:00 53.18758 -1.92922 10764 ft 265 kts 309°
2026-05-04 19:00 53.19947 -1.95247 10099 ft 262 kts 309°
2026-05-04 19:01 53.21120 -1.97541 9403 ft 259 kts 310°
2026-05-04 19:01 53.22282 -1.99811 8681 ft 256 kts 310°
2026-05-04 19:01 53.23595 -2.01784 7942 ft 254 kts 328°
2026-05-04 19:01 53.25236 -2.02695 7279 ft 251 kts 353°
2026-05-04 19:02 53.26974 -2.02667 6639 ft 248 kts
2026-05-04 19:02 53.28683 -2.02435 6026 ft 244 kts
2026-05-04 19:02 53.30373 -2.02190 5354 ft 242 kts
2026-05-04 19:02 53.32038 -2.01960 4968 ft 242 kts
2026-05-04 19:03 53.33726 -2.01738 4832 ft 242 kts
2026-05-04 19:03 53.35402 -2.01520 4707 ft 240 kts
2026-05-04 19:03 53.37069 -2.01310 4572 ft 240 kts
2026-05-04 19:03 53.38730 -2.01104 4440 ft 239 kts
2026-05-04 19:04 53.40394 -2.00899 4315 ft 239 kts
2026-05-04 19:04 53.42044 -2.00696 4189 ft 238 kts
2026-05-04 19:04 53.43699 -2.00493 4060 ft 237 kts
2026-05-04 19:04 53.45295 -2.00295 3931 ft 224 kts
2026-05-04 19:05 53.46817 -2.00105 3835 ft 213 kts
2026-05-04 19:05 53.48237 -1.99934 3713 ft 202 kts
2026-05-04 19:05 53.49588 -2.00189 3584 ft 190 kts 338°
2026-05-04 19:05 53.50525 -2.01556 3471 ft 178 kts 295°
2026-05-04 19:06 53.50547 -2.03552 3356 ft 173 kts 254°
2026-05-04 19:06 53.50110 -2.05439 3287 ft 174 kts 249°
2026-05-04 19:06 53.49624 -2.07314 3229 ft 175 kts 248°
2026-05-04 19:06 53.49171 -2.09206 3180 ft 174 kts 254°
2026-05-04 19:07 53.48747 -2.11077 3328 ft 177 kts 229°
2026-05-04 19:07 53.47649 -2.12037 3506 ft 179 kts 206°
2026-05-04 19:07 53.46806 -2.13453 3738 ft 173 kts 257°
2026-05-04 19:07 53.47097 -2.15274 3832 ft 167 kts 317°
2026-05-04 19:08 53.48189 -2.15734 3811 ft 172 kts
2026-05-04 19:08 53.49394 -2.15319 3815 ft 177 kts 15°
2026-05-04 19:08 53.50420 -2.14223 3791 ft 182 kts 46°
2026-05-04 19:08 53.50879 -2.12279 3673 ft 185 kts 84°
2026-05-04 19:09 53.50749 -2.10127 3625 ft 186 kts 103°
2026-05-04 19:09 53.50346 -2.08055 3569 ft 187 kts 110°
2026-05-04 19:09 53.49868 -2.06042 3506 ft 185 kts 111°
2026-05-04 19:09 53.49405 -2.04016 3488 ft 185 kts 109°
2026-05-04 19:10 53.48993 -2.01960 3491 ft 186 kts 107°
2026-05-04 19:10 53.48641 -1.99907 3489 ft 185 kts 104°
2026-05-04 19:10 53.48226 -1.97852 3426 ft 180 kts 132°
2026-05-04 19:10 53.47074 -1.97300 3121 ft 186 kts 200°
2026-05-04 19:11 53.46218 -1.98854 2499 ft 192 kts 255°
2026-05-04 19:11 53.45906 -2.00966 2309 ft 176 kts 257°
2026-05-04 19:11 53.45814 -2.02959 2124 ft 168 kts 277°
2026-05-04 19:11 53.45955 -2.04913 2040 ft 170 kts 274°
2026-05-04 19:12 53.45886 -2.06890 1976 ft 172 kts 257°
2026-05-04 19:12 53.44367 -2.10011 1458 ft 178 kts 222°
2026-05-04 19:12 53.43448 -2.11274 1274 ft 163 kts 224°
2026-05-04 19:13 53.42672 -2.12508 1098 ft 147 kts 229°
2026-05-04 19:13 53.42015 -2.13696 1115 ft 144 kts 231°
2026-05-04 19:13 53.41396 -2.14934 1082 ft 132 kts 236°
2026-05-04 19:13 53.40834 -2.16069 997 ft 123 kts 235°
2026-05-04 19:14 53.40304 -2.17200 942 ft 124 kts 235°
2026-05-04 19:14 53.39766 -2.18329 948 ft 130 kts 236°
2026-05-04 19:14 53.39166 -2.19574 831 ft 137 kts 235°
2026-05-04 19:14 53.38611 -2.20766 737 ft 124 kts 233°
2026-05-04 19:15 53.38081 -2.21872 665 ft 122 kts 234°
2026-05-04 19:15 53.37733 -2.22610 648 ft 122 kts 233°
2026-05-04 19:15 53.37026 -2.24056 466 ft 116 kts 237°
2026-05-04 19:15 53.36694 -2.24771 411 ft 118 kts 238°
2026-05-04 19:16 53.36006 -2.26181 278 ft 118 kts 234°
2026-05-04 19:16 53.35550 -2.27140 258 ft 89 kts 231°
2026-05-04 19:16 53.35369 -2.27507 249 ft 49 kts 231°
2026-05-04 19:16 53.35243 -2.28032 239 ft 17 kts 261°
2026-05-04 19:17 53.35241 -2.28049 238 ft 0 kts 262°
2026-05-04 19:17 53.35236 -2.28102 237 ft 8 kts 262°
2026-05-04 19:18 53.35235 -2.28125 237 ft 1 kts 266°
2026-05-04 19:18 53.35237 -2.28150 237 ft 6 kts 278°
2026-05-04 19:18 53.35262 -2.28190 238 ft 4 kts 343°
2026-05-04 19:18 53.35298 -2.28186 239 ft 8 kts
2026-05-04 19:19 53.35321 -2.28183 240 ft 0 kts
2026-05-04 19:19 53.35381 -2.28169 242 ft 19 kts
2026-05-04 19:19 53.35528 -2.28075 241 ft 16 kts 43°
2026-05-04 19:19 53.35609 -2.27936 246 ft 17 kts 38°
2026-05-04 19:20 53.35713 -2.27872 252 ft 14 kts
2026-05-04 19:20 53.35801 -2.27864 256 ft 14 kts
2026-05-04 19:20 53.35941 -2.27863 262 ft 22 kts 344°
2026-05-04 19:20 53.36067 -2.28010 261 ft 22 kts 318°
2026-05-04 19:21 53.36180 -2.28192 261 ft 25 kts 314°
2026-05-04 19:21 53.36306 -2.28402 261 ft 22 kts 315°
2026-05-04 19:21 53.36408 -2.28494 261 ft 17 kts 333°
2026-05-04 19:21 53.36505 -2.28629 261 ft 20 kts 316°
2026-05-04 19:22 53.36583 -2.28781 261 ft 12 kts 303°
2026-05-04 19:22 53.36627 -2.28880 261 ft 10 kts 310°
2026-05-04 19:22 53.36699 -2.29006 261 ft 19 kts 314°
2026-05-04 19:22 53.36771 -2.29061 261 ft 11 kts 356°
2026-05-04 19:23 53.36796 -2.29039 261 ft 0 kts 60°
2026-05-04 19:23 53.36797 -2.29030 261 ft 1 kts 76°
2026-05-04 19:23 53.36794 -2.28989 261 ft 7 kts 106°
2026-05-04 19:23 53.36778 -2.28944 261 ft 0 kts 126°
2026-05-04 19:24 53.36777 -2.28941 261 ft 0 kts 128°
2026-05-04 19:44 53.36777 -2.28942 261 ft 0 kts 128°